Patrick Air Force Base, FL

6:39 PM EDT on September 30, 2016 (GMT -0400)
Patrick Air Force Base

Weather History for KCOF - September, 2013

Change the Weather History Date:

Monday, September 30, 2013

  Actual Average Record
Temperature  
Mean Temperature 79 °F -  
Max Temperature 84 °F 83 °F 89 °F (1998)
Min Temperature 74 °F 74 °F 71 °F (1997)
Cooling Degree Days 14    
Growing Degree Days 29 (Base 50)    
Moisture  
Dew Point 70 °F    
Average Humidity 71    
Maximum Humidity 88    
Minimum Humidity 60    
Precipitation  
Precipitation 0.00 in - - ()
Sea Level Pressure  
Sea Level Pressure 29.98 in    
Wind  
Wind Speed 6 mph (ENE)    
Max Wind Speed 12 mph    
Max Gust Speed -    
Visibility 10 miles    
Events      
Averages and records for this station are not official NWS values.
T = Trace of Precipitation, MM = Missing Value Source: NWS Daily Summary

Daily Weather History Graph

Daily Weather History Graph

Search for Another Location

Airport or City:

Trip Planner

Search our weather history database for the weather conditions in past years. The results will help you decide how hot, cold, wet, or windy it might be!

Date:

Astronomy

Sep. 30, 2013 Rise Set
Actual Time 7:14 AM EDT 7:09 PM EDT
Civil Twilight 6:51 AM EDT 7:32 PM EDT
Nautical Twilight 6:24 AM EDT 7:59 PM EDT
Astronomical Twilight 5:56 AM EDT 8:27 PM EDT
Moon 3:09 AM EDT 4:22 PM EDT
Length of Visible Light 12h 41m
Length of Day
11h 54m
Waning Crescent, 19% of the Moon is Illuminated
Sep 30
Waning Crescent
Oct 4
New
Oct 11
First Quarter
Oct 18
Full
Oct 26
Last Quarter

Hourly Weather History & Observations

Time (EDT) Temp. Heat Index Dew Point Humidity Pressure Visibility Wind Dir Wind Speed Gust Speed Precip Events Conditions
12:58 AM 78.3 °F - 69.3 °F 74% 29.96 in 10.0 mi East 5.8 mph - N/A   Partly Cloudy
1:58 AM 77.9 °F - 69.4 °F 75% 29.96 in 10.0 mi East 5.8 mph - N/A   Partly Cloudy
2:58 AM 77.4 °F - 68.7 °F 75% 29.95 in 10.0 mi East 5.8 mph - N/A   Clear
3:58 AM 77.2 °F - 69.4 °F 77% 29.95 in 10.0 mi SW 5.8 mph - N/A   Partly Cloudy
4:58 AM 74.5 °F - 69.4 °F 84% 29.95 in 10.0 mi South 4.6 mph - N/A   Clear
5:58 AM 74.1 °F - 69.8 °F 86% 29.96 in 10.0 mi South 2.3 mph - N/A   Clear
6:58 AM 74.1 °F - 70.0 °F 87% 29.98 in 10.0 mi West 6.9 mph - N/A   Clear
7:58 AM 75.2 °F - 71.4 °F 88% 29.99 in 10.0 mi West 5.8 mph - N/A   Clear
8:58 AM 79.0 °F - 71.6 °F 78% 30.01 in 10.0 mi West 2.3 mph - N/A   Clear
9:58 AM 80.1 °F 83.3 °F 70.3 °F 72% 30.01 in 10.0 mi NW 3.5 mph - N/A   Clear
10:58 AM 83.1 °F 87.1 °F 70.0 °F 64% 30.01 in 10.0 mi West 2.3 mph - N/A   Clear
11:58 AM 83.5 °F 87.7 °F 70.2 °F 64% 30.01 in 10.0 mi ENE 4.6 mph - N/A   Clear
12:58 PM 83.1 °F 87.1 °F 70.0 °F 64% 29.99 in 10.0 mi ENE 8.1 mph - N/A   Clear
1:58 PM 84.0 °F 88.4 °F 70.2 °F 63% 29.98 in 10.0 mi ENE 9.2 mph - N/A   Clear
2:58 PM 84.6 °F 88.5 °F 69.1 °F 60% 29.96 in 10.0 mi NE 8.1 mph - N/A   Clear
3:20 PM 84.2 °F 88.4 °F 69.8 °F 62% 29.95 in 10.0 mi ENE 9.2 mph - N/A   Light Drizzle
3:28 PM 84.2 °F 88.4 °F 69.8 °F 62% 29.95 in 10.0 mi ENE 10.4 mph - N/A   Clear
3:58 PM 84.4 °F 88.5 °F 69.4 °F 61% 29.96 in 10.0 mi ENE 8.1 mph - 0.00 in   Clear
4:58 PM 83.5 °F 87.7 °F 70.3 °F 64% 29.96 in 10.0 mi NE 11.5 mph - N/A   Clear
5:58 PM 82.0 °F 85.7 °F 69.6 °F 66% 29.98 in 10.0 mi ENE 9.2 mph - N/A   Clear
6:58 PM 80.8 °F 83.9 °F 69.4 °F 68% 29.99 in 10.0 mi ENE 6.9 mph - N/A   Clear
7:58 PM 80.2 °F 83.3 °F 69.8 °F 70% 29.99 in 10.0 mi ENE 10.4 mph - N/A   Clear
8:58 PM 80.1 °F 83.2 °F 70.0 °F 71% 30.01 in 10.0 mi ENE 11.5 mph - N/A   Partly Cloudy
9:58 PM 80.1 °F 83.2 °F 70.0 °F 71% 30.04 in 10.0 mi ENE 10.4 mph - N/A   Partly Cloudy
10:58 PM 79.9 °F - 70.3 °F 73% 30.04 in 10.0 mi East 10.4 mph - N/A   Clear
11:58 PM 80.1 °F 83.4 °F 70.5 °F 73% 30.04 in 10.0 mi East 10.4 mph - N/A   Scattered Clouds